Menorca, Spain

11:00 AM CEST on July 21, 2017 (GMT +0200)
Menorca

Weather History for LEMH - May, 2013

Change the Weather History Date:

Thursday, May 2, 2013

  Actual Average Record
Temperature  
Mean Temperature 60 °F -  
Max Temperature 69 °F 70 °F 78 °F (2003)
Min Temperature 51 °F 56 °F 50 °F (2017)
Degree Days  
Heating Degree Days 5    
Growing Degree Days 10 (Base 50)    
Moisture  
Dew Point 49 °F    
Average Humidity 71    
Maximum Humidity 100    
Minimum Humidity 33    
Precipitation  
Precipitation 0.00 in 0.05 in - ()
Sea Level Pressure  
Sea Level Pressure 30.01 in    
Wind  
Wind Speed 5 mph ()    
Max Wind Speed 13 mph    
Max Gust Speed -    
Visibility 6.7 miles    
Events      
Averages and records for this station are not official NWS values.
T = Trace of Precipitation, MM = Missing Value Source: Averaged Metar Reports

Daily Weather History Graph

Daily Weather History Graph

Search for Another Location

Airport or City:

Trip Planner

Search our weather history database for the weather conditions in past years. The results will help you decide how hot, cold, wet, or windy it might be!

Date:

Astronomy

May. 02, 2013 Rise Set
Actual Time 6:42 AM CEST 8:38 PM CEST
Civil Twilight 6:12 AM CEST 9:08 PM CEST
Nautical Twilight 5:37 AM CEST 9:43 PM CEST
Astronomical Twilight 4:58 AM CEST 10:22 PM CEST
Moon 2:18 AM CEST (5/2) 1:11 PM CEST (5/2)
Length of Visible Light 14h 55m
Length of Day
13h 56m
Waning Gibbous, 51% of the Moon is Illuminated
May 2
Waning Gibbous
May 2
Last Quarter
May 10
New
May 18
First Quarter
May 25
Full

Hourly Weather History & Observations

Time (CEST) Temp. Dew Point Humidity Pressure Visibility Wind Dir Wind Speed Gust Speed Precip Events Conditions
12:00 AM 51.8 °F 50.0 °F 94% 30.04 in - Calm Calm - N/A   Clear
12:30 AM 51.8 °F 50.0 °F 94% 30.04 in 6.2 mi Variable 2.3 mph - N/A   Partly Cloudy
2:00 AM 53 °F 51 °F 89% 30.03 in 11 mi NNE 3.5 mph - -   Scattered Clouds
2:00 AM 53.6 °F 51.8 °F 94% 30.01 in 6.2 mi NNE 3.5 mph - N/A   Partly Cloudy
5:00 AM 51.8 °F 51.8 °F 100% 30.01 in 6.2 mi North 6.9 mph - N/A   Partly Cloudy
5:30 AM 51.8 °F 50.0 °F 94% 29.98 in 6.2 mi NNW 5.8 mph - N/A   Partly Cloudy
6:00 AM 51.8 °F 50.0 °F 94% 29.98 in 6.2 mi NNW 6.9 mph - N/A   Partly Cloudy
6:30 AM 51.8 °F 50.0 °F 94% 29.98 in 6.2 mi NNW 5.8 mph - N/A   Partly Cloudy
7:00 AM 51.8 °F 51.8 °F 100% 29.98 in 6.2 mi NNW 3.5 mph - N/A   Partly Cloudy
7:30 AM 53.6 °F 51.8 °F 94% 29.98 in 6.2 mi North 6.9 mph - N/A   Partly Cloudy
8:00 AM 55 °F 54 °F 95% 30.00 in 12 mi NNW 3.5 mph - -   Scattered Clouds
8:00 AM 55.4 °F 53.6 °F 94% 29.98 in 6.2 mi NNW 3.5 mph - N/A   Partly Cloudy
8:30 AM 57.2 °F 55.4 °F 94% 30.01 in 6.2 mi NNW 3.5 mph - N/A   Partly Cloudy
9:00 AM 59.0 °F 57.2 °F 94% 30.01 in 6.2 mi North 6.9 mph - N/A   Partly Cloudy
9:30 AM 59.0 °F 55.4 °F 88% 30.01 in 6.2 mi North 10.4 mph - N/A   Partly Cloudy
10:00 AM 62.6 °F 53.6 °F 72% 30.01 in 6.2 mi North 12.7 mph - N/A   Partly Cloudy
10:30 AM 64.4 °F 48.2 °F 56% 29.98 in 6.2 mi North 12.7 mph - N/A   Partly Cloudy
11:00 AM 64.4 °F 44.6 °F 49% 30.01 in 6.2 mi North 11.5 mph - N/A   Partly Cloudy
11:30 AM 66.2 °F 46.4 °F 49% 30.01 in 6.2 mi NNE 10.4 mph - N/A   Partly Cloudy
12:00 PM 66.2 °F 46.4 °F 49% 30.01 in 6.2 mi NNE 10.4 mph - N/A   Partly Cloudy
12:30 PM 66.2 °F 46.4 °F 49% 30.04 in 6.2 mi North 8.1 mph - N/A   Partly Cloudy
1:00 PM 68.0 °F 41.0 °F 37% 30.01 in 6.2 mi NE 5.8 mph - N/A   Partly Cloudy
1:30 PM 69.8 °F 44.6 °F 40% 30.01 in 6.2 mi NNE 8.1 mph - N/A   Partly Cloudy
2:00 PM 69.8 °F 41.0 °F 35% 30.01 in 6.2 mi NNE 9.2 mph - N/A   Partly Cloudy
2:30 PM 68.0 °F 42.8 °F 40% 30.01 in - NNE 8.1 mph - N/A   Clear
3:00 PM 68.0 °F 41.0 °F 37% 30.01 in - NNE 8.1 mph - N/A   Clear
3:30 PM 69.8 °F 39.2 °F 33% 30.01 in - NNE 5.8 mph - N/A   Clear
4:00 PM 68.0 °F 41.0 °F 37% 30.01 in 6.2 mi Variable 6.9 mph - N/A   Partly Cloudy
4:30 PM 68.0 °F 41.0 °F 37% 30.01 in 6.2 mi North 8.1 mph - N/A   Partly Cloudy
5:00 PM 68.0 °F 42.8 °F 40% 30.01 in 6.2 mi North 5.8 mph - N/A   Partly Cloudy
5:30 PM 68.0 °F 42.8 °F 40% 30.01 in 6.2 mi NNE 9.2 mph - N/A   Partly Cloudy
6:00 PM 64.4 °F 46.4 °F 52% 30.01 in 6.2 mi North 9.2 mph - N/A   Partly Cloudy
6:30 PM 62.6 °F 48.2 °F 59% 30.01 in 6.2 mi North 9.2 mph - N/A   Partly Cloudy
7:00 PM 62.6 °F 48.2 °F 59% 29.98 in 6.2 mi North 8.1 mph - N/A   Partly Cloudy
7:30 PM 62.6 °F 51.8 °F 68% 29.98 in 6.2 mi North 6.9 mph - N/A   Partly Cloudy
8:00 PM 62 °F 53 °F 63% 30.00 in 12 mi North 8.1 mph - -   Scattered Clouds
8:00 PM 60.8 °F 53.6 °F 77% 29.98 in 6.2 mi North 8.1 mph - N/A   Partly Cloudy
8:30 PM 59.0 °F 53.6 °F 82% 30.01 in 6.2 mi North 5.8 mph - N/A   Partly Cloudy
9:00 PM 57.2 °F 53.6 °F 88% 30.01 in 6.2 mi Variable 2.3 mph - N/A   Partly Cloudy
9:30 PM 55.4 °F 51.8 °F 88% 30.01 in - NNW 3.5 mph - N/A   Clear
10:00 PM 55.4 °F 51.8 °F 88% 30.01 in - Variable 2.3 mph - N/A   Clear
10:30 PM 53.6 °F 51.8 °F 94% 30.01 in - Variable 2.3 mph - N/A   Clear
11:00 PM 53.6 °F 50.0 °F 88% 30.04 in - Variable 2.3 mph - N/A   Clear
11:30 PM 53.6 °F 50.0 °F 88% 30.04 in - NW 5.8 mph - N/A   Clear